map of BGX home
BGX - Airport
Location
City:  Bagé, Rio Grande do Sul, Brazil
Name:Comandante Gustavo Kraemer
ICAO:SBBG
IATA:BGX

Details
Type:Airport (Aerodrome, Airfield)
Latitude:31°23'26"S (-31.390527)
Longitude:54°06'44"W (-54.112243)
Datum:WGS 1984
Elevation:600 ft (183 m)
Variation:14.37°W (WMM2015 magnetic declination)
-0.16° annual change
Runways:2
Longest:4921 × 98 ft (1500 × 30 m), paved

Time
Time Zone:UTC-3 (DST-2)
Local Time:

Weather
METAR:SBBG 151900Z 34010KT 9999 TS BKN027 FEW030CB SCT100 30/24 Q1006
TAF:SBBG 160830Z 1612/1712 26010KT 9999 SCT020 TX28/1618Z TN21/1708Z
BECMG 1622/1624 12007KT BKN008
TEMPO 1708/1712 5000 TSRA BR BKN006 FEW025C B
RMK PDW

Related Locations
Nearby:
Farthest:JDG: 12285 mi / 19770 km
Jeongseok (Jeju) [Jeongseok Airport], Cheju Do Island, KR

Find:

   beyond  
but within

Other Information
Maps:
NOTAMs:
Links:
Sources:

  
  • flag of Brazil
  • flag of Rio Grande do Sul
  

Sectional Chart

Flight Planning
at skyvector.com

Satellite Image

Google Maps Satellite view

 

Copyright © 2004-2019 Karl L. Swartz. All rights reserved.
The Great Circle Mapper name and logo are trademarks of the Great Circle Mapper.
All other trademarks mentioned herein belong to their respective owners.
Please see credits for attibutions and further copyright information.

  Follow gcmap on Facebook Follow gcmap on Twitter Follow gcmap on Google+ GCmap on LinkedIn

hCard Microformat

Geo Microformat